This is the latest recevied weather packets stored in our database for station/object PA5MB-15. If no packets are shown the sender has not sent any weather packets the latest 10 day(s).
| Time | Temp. | Humidity | Pressure | Rain* | Wind** | Luminosity | Snow |
|---|---|---|---|---|---|---|---|
| 1777888833 | 17.78° C | 86% | 1014.8 hPa | 0 mm | - | 18 W/m² | - |
| 1777888531 | 18.33° C | 84% | 1014.8 hPa | 0 mm | - | 17 W/m² | - |
| 1777888225 | 18.89° C | 83% | 1014.8 hPa | 0 mm | - | 20 W/m² | - |
| 1777887930 | 18.89° C | 81% | 1014.8 hPa | 0 mm | - | 44 W/m² | - |
| 1777887632 | 18.89° C | 82% | 1014.9 hPa | 0 mm | - | 55 W/m² | - |
| 1777887330 | 18.33° C | 83% | 1014.8 hPa | 0 mm | - | 61 W/m² | - |
| 1777887030 | 18.33° C | 85% | 1014.8 hPa | 0 mm | - | 48 W/m² | - |
| 1777886768 | 18.33° C | 87% | 1014.8 hPa | 0 mm | - | 40 W/m² | - |
| 1777886421 | 17.78° C | 88% | 1014.8 hPa | 0 mm | - | 30 W/m² | - |
| 1777886130 | 17.22° C | 89% | 1014.8 hPa | 0 mm | - | 28 W/m² | - |
| 1777885833 | 16.67° C | 90% | 1014.7 hPa | 0 mm | - | 36 W/m² | - |
| 1777885530 | 16.67° C | 91% | 1014.7 hPa | 0 mm | - | 31 W/m² | - |
| 1777885231 | 16.67° C | 92% | 1014.7 hPa | 0 mm | - | 37 W/m² | - |
| 1777884930 | 16.67° C | 92% | 1014.7 hPa | 0 mm | - | 15 W/m² | - |
| 1777884634 | 16.67° C | 92% | 1014.7 hPa | 0 mm | - | 14 W/m² | - |
| 1777884330 | 16.67° C | 92% | 1014.7 hPa | 0 mm | - | 19 W/m² | - |
| 1777884025 | 16.67° C | 92% | 1014.7 hPa | 0 mm | - | 20 W/m² | - |
| 1777883722 | 16.11° C | 93% | 1014.7 hPa | 0 mm | - | 21 W/m² | - |
| 1777883431 | 16.11° C | 93% | 1014.6 hPa | 0 mm | - | 17 W/m² | - |
| 1777883155 | 16.11° C | 94% | 1014.6 hPa | 0 mm | - | 21 W/m² | - |
| 1777882831 | 15.56° C | 94% | 1014.6 hPa | 0 mm | - | 25 W/m² | - |
| 1777882525 | 16.11° C | 95% | 1014.5 hPa | 0 mm | - | 28 W/m² | - |
| 1777882231 | 15.56° C | 96% | 1014.5 hPa | 0 mm | - | 28 W/m² | - |
| 1777881930 | 15.56° C | 97% | 1014.5 hPa | 0 mm | - | 31 W/m² | - |
| 1777881624 | 15° C | 98% | 1014.5 hPa | 0 mm | - | 23 W/m² | - |
* Rain latest hour (hover to see other rain measurements)
** Current wind speed in m/s (hover to see current wind gust speed)